Tracking 31027 objects as of 19-Jul-2025
HD Live streaming from Space Station
objects crossing your sky now

STARLINK-6311

Track STARLINK-6311 now!
10-day predictions
STARLINK-6311 is classified as:


NORAD ID: 56537
Int'l Code: 2023-065AL
Perigee: 565.6 km
Apogee: 566.8 km
Inclination: 43.0 °
Period: 95.8 minutes
Semi major axis: 6937 km
RCS: Unknown
Launch date: May 14, 2023
Source: United States (US)
Launch site: AIR FORCE EASTERN TEST RANGE (AFETR)
Your satellite tracking list
STARLINK-1749
Track 1 satellite(s)




NASA's NSSDC Master Catalog

Two Line Element Set (TLE):
1 56537U 23065AL  25199.29122464 -.00002517  00000-0 -17126-3 0  9995
2 56537  43.0052  57.1377 0000891 250.2775 109.7972 15.02547399121215
Source of the keplerian elements: AFSPC